Regional Weather Roundup
Issued by NWS Goodland, KS

Home | Current Version | Previous Version | Graphics & Text | Print | Product List | Glossary On
Versions: 1 2 3 4 5 6 7 8 9 10 11 12 13 14 15 16 17 18 19 20 21 22 23 24 25 26 27 28 29 30 31 32 33 34 35 36 37 38 39 40 41 42 43 44 45 46 47 48 49 50
000
ASUS43 KGLD 201759
RWRGLD

GOODLAND FORECAST AREA HOURLY WEATHER ROUNDUP
NATIONAL WEATHER SERVICE GOODLAND KS
1200 PM MDT WED AUG 20 2014

...OFFICIAL OBSERVATIONS...

CITY           SKY/WX    TMP DP  RH WIND       PRES   REMARKS
GOODLAND KS    SUNNY     91  53  27 W9        29.84S
HILL CITY KS   SUNNY     93  65  39 S14       29.77F
IMPERIAL NEB   PTSUNNY   80  64  58 N8        29.82S
MCCOOK NEB     MOSUNNY   92  63  38 SE7       29.77F
AKRON CO       SUNNY     83  53  35 VRB7      29.91F
BURLINGTON CO  SUNNY     86  51  29 VRB6      29.89R
LIMON CO       MOSUNNY   84  47  27 VRB6      29.96S
$$

...UNOFFICIAL OBSERVATIONS...

CITY           SKY/WX    TMP DP  RH WIND       PRES   REMARKS
COLBY KS       SUNNY     90  66  45 S9        29.82S
LENORA KS        N/A     89  32  13 CALM        N/A
NORTON KS      SUNNY     93  57  29 SE14G20   29.76F
SHARON SPRINGS   N/A     94  60  31 W8          N/A
WAKEENEY KS      N/A     92  60  33 MISG        N/A
KIT CARSON CO    N/A     89  53  29 MISG        N/A
YUMA CO          N/A     80  56  43 NE13        N/A
$$


USA.gov is the U.S. government's official web portal to all federal, state and local government web resources and services.